owner,sensor,date,latitude,longitude,vertical_datum,wind_speed,wind_to_direction,wind_speed_of_gust,qcFlag 
TABS,ioos:station:wmo:42046:1,2007-08-01T00:00:00Z,27.8903,-94.0367,4.0,0.975807358,225.0001052,1.89,'11111222,11111222,11111222' 
TABS,ioos:station:wmo:42046:1,2007-08-01T00:30:00Z,27.8903,-94.0367,4.0,1.283900308,184.4673591,2.02,'11111222,11111222,11111222' 
TABS,ioos:station:wmo:42046:1,2007-08-01T01:00:00Z,27.8903,-94.0367,4.0,1.725398505,202.8499191,2.59,'11111222,11111222,11111222' 
TABS,ioos:station:wmo:42046:1,2007-08-01T01:30:00Z,27.8903,-94.0367,4.0,1.427725464,191.3101165,2.34,'11111222,11111222,11111222' 
TABS,ioos:station:wmo:42046:1,2007-08-01T02:00:00Z,27.8903,-94.0367,4.0,1.855262785,228.0587957,2.65,'11111222,11111222,11111222' 
TABS,ioos:station:wmo:42046:1,2007-08-01T02:30:00Z,27.8903,-94.0367,4.0,1.768756625,203.6666295,2.82,'11111222,11111222,11111222' 
TABS,ioos:station:wmo:42046:1,2007-08-01T03:00:00Z,27.8903,-94.0367,4.0,2.133283854,207.0456549,2.89,'11111222,11111222,11111222' 
TABS,ioos:station:wmo:42046:1,2007-08-01T03:30:00Z,27.8903,-94.0367,4.0,2.490702712,214.2006146,3.73,'11111222,11111222,11111222' 
TABS,ioos:station:wmo:42046:1,2007-08-01T04:00:00Z,27.8903,-94.0367,4.0,2.432488438,214.2781612,3.83,'11111222,11111222,11111222' 
TABS,ioos:station:wmo:42046:1,2007-08-01T04:30:00Z,27.8903,-94.0367,4.0,2.580310059,217.7582553,3.48,'11111222,11111222,11111222' 
TABS,ioos:station:wmo:42046:1,2007-08-01T05:00:00Z,27.8903,-94.0367,4.0,2.447733646,208.5545592,3.22,'11111222,11111222,11111222' 
TABS,ioos:station:wmo:42046:1,2007-08-01T05:30:00Z,27.8903,-94.0367,4.0,2.461300469,208.6477599,3.08,'11111222,11111222,11111222' 
TABS,ioos:station:wmo:42046:1,2007-08-01T06:00:00Z,27.8903,-94.0367,4.0,2.630304165,220.8376795,3.45,'11111222,11111222,11111222' 
TABS,ioos:station:wmo:42046:1,2007-08-01T06:30:00Z,27.8903,-94.0367,4.0,3.181336197,238.7583338,4.14,'11111222,11111222,11111222' 
TABS,ioos:station:wmo:42046:1,2007-08-01T07:00:00Z,27.8903,-94.0367,4.0,3.471094928,230.0254464,4.29,'11111222,11111222,11111222' 
TABS,ioos:station:wmo:42046:1,2007-08-01T07:30:00Z,27.8903,-94.0367,4.0,3.653121953,229.5519059,4.38,'11111222,11111222,11111222' 
TABS,ioos:station:wmo:42046:1,2007-08-01T08:00:00Z,27.8903,-94.0367,4.0,3.500357125,232.311735,4.35,'11111222,11111222,11111222' 
TABS,ioos:station:wmo:42046:1,2007-08-01T08:30:00Z,27.8903,-94.0367,4.0,3.210763149,234.3794283,4.54,'11111222,11111222,11111222' 
TABS,ioos:station:wmo:42046:1,2007-08-01T09:00:00Z,27.8903,-94.0367,4.0,3.415054904,241.1084203,4.19,'11111222,11111222,11111222' 
TABS,ioos:station:wmo:42046:1,2007-08-01T09:30:00Z,27.8903,-94.0367,4.0,4.016876896,230.9615839,5.35,'11111222,11111222,11111222' 
TABS,ioos:station:wmo:42046:1,2007-08-01T10:00:00Z,27.8903,-94.0367,4.0,3.48208271,241.1532296,4.35,'11111222,11111222,11111222' 
TABS,ioos:station:wmo:42046:1,2007-08-01T10:30:00Z,27.8903,-94.0367,4.0,2.875708608,230.2200321,3.7,'11111222,11111222,11111222' 
TABS,ioos:station:wmo:42046:1,2007-08-01T11:00:00Z,27.8903,-94.0367,4.0,3.082985566,225.0001052,3.97,'11111222,11111222,11111222' 
TABS,ioos:station:wmo:42046:1,2007-08-01T11:30:00Z,27.8903,-94.0367,4.0,3.393243286,221.5354955,4.22,'11111222,11111222,11111222' 
TABS,ioos:station:wmo:42046:1,2007-08-01T12:00:00Z,27.8903,-94.0367,4.0,2.63250831,239.1482942,3.35,'11111222,11111222,11111222' 
TABS,ioos:station:wmo:42046:1,2007-08-01T12:30:00Z,27.8903,-94.0367,4.0,2.698981289,249.6179267,3.39,'11111222,11111222,11111222' 
TABS,ioos:station:wmo:42046:1,2007-08-01T13:00:00Z,27.8903,-94.0367,4.0,3.296846979,240.1689646,4.3,'11111222,11111222,11111222' 
TABS,ioos:station:wmo:42046:1,2007-08-01T13:30:00Z,27.8903,-94.0367,4.0,2.528813951,253.9301535,3.26,'11111222,11111222,11111222' 
TABS,ioos:station:wmo:42046:1,2007-08-01T14:00:00Z,27.8903,-94.0367,4.0,2.354230235,260.2176158,3.27,'11111222,11111222,11111222' 
TABS,ioos:station:wmo:42046:1,2007-08-01T14:30:00Z,27.8903,-94.0367,4.0,2.582885983,258.3855642,3.51,'11111222,11111222,11111222' 
TABS,ioos:station:wmo:42046:1,2007-08-01T15:00:00Z,27.8903,-94.0367,4.0,2.524836628,253.4312096,3.36,'11111222,11111222,11111222' 
TABS,ioos:station:wmo:42046:1,2007-08-01T15:30:00Z,27.8903,-94.0367,4.0,3.236603158,257.5096235,4.53,'11111222,11111222,11111222' 
TABS,ioos:station:wmo:42046:1,2007-08-01T16:00:00Z,27.8903,-94.0367,4.0,3.476104141,252.7640092,4.35,'11111222,11111222,11111222' 
TABS,ioos:station:wmo:42046:1,2007-08-01T16:30:00Z,27.8903,-94.0367,4.0,3.4505217,270.9963456,4.09,'11111222,11111222,11111222' 
TABS,ioos:station:wmo:42046:1,2007-08-01T17:00:00Z,27.8903,-94.0367,4.0,2.804728151,279.0257063,3.79,'11111222,11111222,11111222' 
TABS,ioos:station:wmo:42046:1,2007-08-01T17:30:00Z,27.8903,-94.0367,4.0,2.389079321,300.4289951,3.12,'11111222,11111222,11111222' 
TABS,ioos:station:wmo:42046:1,2007-08-01T18:00:00Z,27.8903,-94.0367,4.0,2.430740628,305.4553915,3.33,'11111222,11111222,11111222' 
TABS,ioos:station:wmo:42046:1,2007-08-01T18:30:00Z,27.8903,-94.0367,4.0,2.798731856,321.8196557,3.79,'11111222,11111222,11111222' 
TABS,ioos:station:wmo:42046:1,2007-08-01T19:00:00Z,27.8903,-94.0367,4.0,2.248021352,336.3996549,3.08,'11111222,11111222,11111222' 
TABS,ioos:station:wmo:42046:1,2007-08-01T19:30:00Z,27.8903,-94.0367,4.0,2.651980392,347.58818,3.34,'11111222,11111222,11111222' 
TABS,ioos:station:wmo:42046:1,2007-08-01T20:00:00Z,27.8903,-94.0367,4.0,2.268082891,347.0052031,2.96,'11111222,11111222,11111222' 
TABS,ioos:station:wmo:42046:1,2007-08-01T20:30:00Z,27.8903,-94.0367,4.0,2.397352707,338.4647141,3.28,'11111222,11111222,11111222' 
TABS,ioos:station:wmo:42046:1,2007-08-01T21:00:00Z,27.8903,-94.0367,4.0,2.216867159,342.1370039,2.88,'11111222,11111222,11111222' 
TABS,ioos:station:wmo:42046:1,2007-08-01T21:30:00Z,27.8903,-94.0367,4.0,1.816397534,321.9312354,2.67,'11111222,11111222,11111222' 
TABS,ioos:station:wmo:42046:1,2007-08-01T22:00:00Z,27.8903,-94.0367,4.0,1.587009767,311.4235688,2.67,'11111222,11111222,11111222' 
TABS,ioos:station:wmo:42046:1,2007-08-01T22:30:00Z,27.8903,-94.0367,4.0,1.586190405,311.9334164,2.22,'11111222,11111222,11111222' 
TABS,ioos:station:wmo:42046:1,2007-08-01T23:00:00Z,27.8903,-94.0367,4.0,1.458012346,306.6340282,2.22,'11111222,11111222,11111222' 
TABS,ioos:station:wmo:42046:1,2007-08-01T23:30:00Z,27.8903,-94.0367,4.0,1.467003749,247.9810641,2.19,'11111222,11111222,11111222' 
TABS,ioos:station:wmo:42046:1,2007-08-02T00:00:00Z,27.8903,-94.0367,4.0,2.187532857,227.7792656,2.83,'11111222,11111222,11111222' 
TABS,ioos:station:wmo:42046:1,2007-08-02T00:30:00Z,27.8903,-94.0367,4.0,1.831747799,223.8941491,2.77,'11111222,11111222,11111222' 
TABS,ioos:station:wmo:42046:1,2007-08-02T01:00:00Z,27.8903,-94.0367,4.0,1.851728922,205.5965249,3.33,'11111222,11111222,11111222' 
TABS,ioos:station:wmo:42046:1,2007-08-02T01:30:00Z,27.8903,-94.0367,4.0,1.48946299,198.8000517,2.07,'11111222,11111222,11111222' 
TABS,ioos:station:wmo:42046:1,2007-08-02T02:00:00Z,27.8903,-94.0367,4.0,1.113193604,197.7840573,2.47,'11111222,11111222,11111222' 
TABS,ioos:station:wmo:42046:1,2007-08-02T02:30:00Z,27.8903,-94.0367,4.0,0.470425339,87.56293653,1.03,'11111222,11111222,11111222' 
TABS,ioos:station:wmo:42046:1,2007-08-02T03:00:00Z,27.8903,-94.0367,4.0,1.123610253,147.7246416,1.68,'11111222,11111222,11111222' 
TABS,ioos:station:wmo:42046:1,2007-08-02T03:30:00Z,27.8903,-94.0367,4.0,1.093846424,165.7099188,1.87,'11111222,11111222,11111222' 
TABS,ioos:station:wmo:42046:1,2007-08-02T04:00:00Z,27.8903,-94.0367,4.0,1.800805375,196.1203836,2.79,'11111222,11111222,11111222' 
TABS,ioos:station:wmo:42046:1,2007-08-02T04:30:00Z,27.8903,-94.0367,4.0,2.35915239,187.3059529,3.33,'11111222,11111222,11111222' 
TABS,ioos:station:wmo:42046:1,2007-08-02T05:00:00Z,27.8903,-94.0367,4.0,1.963084308,202.777181,3.96,'11111222,11111222,11111222' 
TABS,ioos:station:wmo:42046:1,2007-08-02T05:30:00Z,27.8903,-94.0367,4.0,1.999649969,205.1555241,2.86,'11111222,11111222,11111222' 
TABS,ioos:station:wmo:42046:1,2007-08-02T06:00:00Z,27.8903,-94.0367,4.0,2.616447974,224.380717,3.67,'11111222,11111222,11111222' 
TABS,ioos:station:wmo:42046:1,2007-08-02T06:30:00Z,27.8903,-94.0367,4.0,2.394702487,234.5180321,3.4,'11111222,11111222,11111222' 
TABS,ioos:station:wmo:42046:1,2007-08-02T07:00:00Z,27.8903,-94.0367,4.0,2.00262328,237.0241859,2.65,'11111222,11111222,11111222' 
TABS,ioos:station:wmo:42046:1,2007-08-02T07:30:00Z,27.8903,-94.0367,4.0,3.080211032,221.9734986,3.78,'11111222,11111222,11111222' 
TABS,ioos:station:wmo:42046:1,2007-08-02T08:00:00Z,27.8903,-94.0367,4.0,3.535647041,225.4584606,4.81,'11111222,11111222,11111222' 
TABS,ioos:station:wmo:42046:1,2007-08-02T08:30:00Z,27.8903,-94.0367,4.0,3.432375271,247.0206503,4.3,'11111222,11111222,11111222' 
TABS,ioos:station:wmo:42046:1,2007-08-02T09:00:00Z,27.8903,-94.0367,4.0,3.796840792,249.6559463,5.07,'11111222,11111222,11111222' 
TABS,ioos:station:wmo:42046:1,2007-08-02T09:30:00Z,27.8903,-94.0367,4.0,3.944578558,250.1410371,4.9,'11111222,11111222,11111222' 
TABS,ioos:station:wmo:42046:1,2007-08-02T10:00:00Z,27.8903,-94.0367,4.0,3.132091953,253.3007948,3.97,'11111222,11111222,11111222' 
TABS,ioos:station:wmo:42046:1,2007-08-02T10:30:00Z,27.8903,-94.0367,4.0,3.772227459,254.7848814,4.73,'11111222,11111222,11111222' 
TABS,ioos:station:wmo:42046:1,2007-08-02T11:00:00Z,27.8903,-94.0367,4.0,3.819554948,265.9464552,4.68,'11111222,11111222,11111222' 
TABS,ioos:station:wmo:42046:1,2007-08-02T11:30:00Z,27.8903,-94.0367,4.0,3.690338738,269.2236837,4.81,'11111222,11111222,11111222' 
TABS,ioos:station:wmo:42046:1,2007-08-02T12:00:00Z,27.8903,-94.0367,4.0,3.815180205,264.8871622,4.59,'11111222,11111222,11111222' 
TABS,ioos:station:wmo:42046:1,2007-08-02T12:30:00Z,27.8903,-94.0367,4.0,3.626678922,273.4777784,4.65,'11111222,11111222,11111222' 
TABS,ioos:station:wmo:42046:1,2007-08-02T13:00:00Z,27.8903,-94.0367,4.0,3.180644589,274.6888321,4.1,'11111222,11111222,11111222' 
TABS,ioos:station:wmo:42046:1,2007-08-02T13:30:00Z,27.8903,-94.0367,4.0,5.995865242,284.6851627,8.42,'11111222,11111222,11111222' 
TABS,ioos:station:wmo:42046:1,2007-08-02T14:00:00Z,27.8903,-94.0367,4.0,3.850402576,325.1541376,5.61,'11111222,11111222,11111222' 
TABS,ioos:station:wmo:42046:1,2007-08-02T14:30:00Z,27.8903,-94.0367,4.0,2.150581317,321.7977614,6.52,'11111222,11111222,11111222' 
TABS,ioos:station:wmo:42046:1,2007-08-02T15:00:00Z,27.8903,-94.0367,4.0,4.222096636,332.6458213,5.17,'11111222,11111222,11111222' 
TABS,ioos:station:wmo:42046:1,2007-08-02T15:30:00Z,27.8903,-94.0367,4.0,8.004879762,317.4806481,11.28,'11111222,11111222,11111222' 
TABS,ioos:station:wmo:42046:1,2007-08-02T16:00:00Z,27.8903,-94.0367,4.0,3.103449693,318.6576529,4.57,'11111222,11111222,11111222' 
TABS,ioos:station:wmo:42046:1,2007-08-02T16:30:00Z,27.8903,-94.0367,4.0,2.714940147,319.0323422,3.63,'11111222,11111222,11111222' 
TABS,ioos:station:wmo:42046:1,2007-08-02T17:00:00Z,27.8903,-94.0367,4.0,3.957903485,326.7514543,6.31,'11111222,11111222,11111222' 
TABS,ioos:station:wmo:42046:1,2007-08-02T17:30:00Z,27.8903,-94.0367,4.0,6.920874222,338.2906697,9.15,'11111222,11111222,11111222' 
TABS,ioos:station:wmo:42046:1,2007-08-02T18:00:00Z,27.8903,-94.0367,4.0,6.293822368,327.1935331,8.61,'11111222,11111222,11111222' 
TABS,ioos:station:wmo:42046:1,2007-08-02T18:30:00Z,27.8903,-94.0367,4.0,5.678468103,309.9992619,7.2,'11111222,11111222,11111222' 
TABS,ioos:station:wmo:42046:1,2007-08-02T19:00:00Z,27.8903,-94.0367,4.0,4.529216268,317.3262511,6.04,'11111222,11111222,11111222' 
TABS,ioos:station:wmo:42046:1,2007-08-02T19:30:00Z,27.8903,-94.0367,4.0,3.649931506,303.6029134,4.59,'11111222,11111222,11111222' 
TABS,ioos:station:wmo:42046:1,2007-08-02T20:00:00Z,27.8903,-94.0367,4.0,3.816870446,288.4823752,4.75,'11111222,11111222,11111222' 
TABS,ioos:station:wmo:42046:1,2007-08-02T20:30:00Z,27.8903,-94.0367,4.0,3.423273287,286.6350803,4.77,'11111222,11111222,11111222' 
TABS,ioos:station:wmo:42046:1,2007-08-02T21:00:00Z,27.8903,-94.0367,4.0,2.988594988,294.9357618,3.92,'11111222,11111222,11111222' 
TABS,ioos:station:wmo:42046:1,2007-08-02T21:30:00Z,27.8903,-94.0367,4.0,3.095932816,309.7580871,3.8,'11111222,11111222,11111222' 
TABS,ioos:station:wmo:42046:1,2007-08-02T22:00:00Z,27.8903,-94.0367,4.0,3.644283194,330.7620057,4.51,'11111222,11111222,11111222' 
TABS,ioos:station:wmo:42046:1,2007-08-02T22:30:00Z,27.8903,-94.0367,4.0,3.783397944,347.9473688,4.53,'11111222,11111222,11111222' 
TABS,ioos:station:wmo:42046:1,2007-08-02T23:00:00Z,27.8903,-94.0367,4.0,2.79894623,14.48283758,4.16,'11111222,11111222,11111222' 
TABS,ioos:station:wmo:42046:1,2007-08-02T23:30:00Z,27.8903,-94.0367,4.0,2.791200459,16.22711264,4.07,'11111222,11111222,11111222' 
TABS,ioos:station:wmo:42046:1,2007-08-03T00:00:00Z,27.8903,-94.0367,4.0,2.516445906,4.101618637,3.3,'11111222,11111222,11111222' 
TABS,ioos:station:wmo:42046:1,2007-08-03T00:30:00Z,27.8903,-94.0367,4.0,2.111516043,357.8284828,3.45,'11111222,11111222,11111222' 
TABS,ioos:station:wmo:42046:1,2007-08-03T01:00:00Z,27.8903,-94.0367,4.0,1.577149327,5.457330264,2.38,'11111222,11111222,11111222' 
TABS,ioos:station:wmo:42046:1,2007-08-03T01:30:00Z,27.8903,-94.0367,4.0,1.723513853,18.96032863,2.66,'11111222,11111222,11111222' 
TABS,ioos:station:wmo:42046:1,2007-08-03T02:00:00Z,27.8903,-94.0367,4.0,1.742555595,35.42271665,2.36,'11111222,11111222,11111222' 
TABS,ioos:station:wmo:42046:1,2007-08-03T02:30:00Z,27.8903,-94.0367,4.0,1.252996409,8.259208207,2.0,'11111222,11111222,11111222' 
TABS,ioos:station:wmo:42046:1,2007-08-03T03:00:00Z,27.8903,-94.0367,4.0,0.857962703,49.2535108,1.56,'11111222,11111222,11111222' 
TABS,ioos:station:wmo:42046:1,2007-08-03T03:30:00Z,27.8903,-94.0367,4.0,0.614654374,111.9748775,1.31,'11111222,11111222,11111222' 
TABS,ioos:station:wmo:42046:1,2007-08-03T04:00:00Z,27.8903,-94.0367,4.0,1.192686044,69.8933913,1.73,'11111222,11111222,11111222' 
TABS,ioos:station:wmo:42046:1,2007-08-03T04:30:00Z,27.8903,-94.0367,4.0,1.445856148,77.21290753,2.06,'11111222,11111222,11111222' 
TABS,ioos:station:wmo:42046:1,2007-08-03T05:00:00Z,27.8903,-94.0367,4.0,1.506851021,74.21090826,2.09,'11111222,11111222,11111222' 
TABS,ioos:station:wmo:42046:1,2007-08-03T05:30:00Z,27.8903,-94.0367,4.0,2.0763911,80.85482881,3.08,'11111222,11111222,11111222' 
TABS,ioos:station:wmo:42046:1,2007-08-03T06:00:00Z,27.8903,-94.0367,4.0,2.04416242,124.2345853,2.87,'11111222,11111222,11111222' 
TABS,ioos:station:wmo:42046:1,2007-08-03T06:30:00Z,27.8903,-94.0367,4.0,1.603652082,109.6782324,2.52,'11111222,11111222,11111222' 
TABS,ioos:station:wmo:42046:1,2007-08-03T07:00:00Z,27.8903,-94.0367,4.0,1.43836713,103.2637186,2.23,'11111222,11111222,11111222' 
TABS,ioos:station:wmo:42046:1,2007-08-03T07:30:00Z,27.8903,-94.0367,4.0,1.145294722,151.8689339,2.21,'11111222,11111222,11111222' 
TABS,ioos:station:wmo:42046:1,2007-08-03T08:00:00Z,27.8903,-94.0367,4.0,1.756416807,184.8992915,2.4,'11111222,11111222,11111222' 
TABS,ioos:station:wmo:42046:1,2007-08-03T08:30:00Z,27.8903,-94.0367,4.0,2.291724242,189.5447137,3.2,'11111222,11111222,11111222' 
TABS,ioos:station:wmo:42046:1,2007-08-03T09:00:00Z,27.8903,-94.0367,4.0,2.3452292,221.3698996,2.98,'11111222,11111222,11111222' 
TABS,ioos:station:wmo:42046:1,2007-08-03T09:30:00Z,27.8903,-94.0367,4.0,1.983859874,249.6468184,2.68,'11111222,11111222,11111222' 
TABS,ioos:station:wmo:42046:1,2007-08-03T10:00:00Z,27.8903,-94.0367,4.0,2.607220742,253.5112849,3.49,'11111222,11111222,11111222' 
TABS,ioos:station:wmo:42046:1,2007-08-03T10:30:00Z,27.8903,-94.0367,4.0,2.001224625,267.9954707,2.93,'11111222,11111222,11111222' 
TABS,ioos:station:wmo:42046:1,2007-08-03T11:00:00Z,27.8903,-94.0367,4.0,2.356140913,261.4572301,3.02,'11111222,11111222,11111222' 
TABS,ioos:station:wmo:42046:1,2007-08-03T11:30:00Z,27.8903,-94.0367,4.0,1.552063143,295.574385,2.25,'11111222,11111222,11111222' 
TABS,ioos:station:wmo:42046:1,2007-08-03T12:00:00Z,27.8903,-94.0367,4.0,1.716420694,308.1383888,2.31,'11111222,11111222,11111222' 
TABS,ioos:station:wmo:42046:1,2007-08-03T12:30:00Z,27.8903,-94.0367,4.0,1.567322558,285.5436429,2.44,'11111222,11111222,11111222' 
TABS,ioos:station:wmo:42046:1,2007-08-03T13:00:00Z,27.8903,-94.0367,4.0,2.372551369,286.9073838,3.13,'11111222,11111222,11111222' 
TABS,ioos:station:wmo:42046:1,2007-08-03T13:30:00Z,27.8903,-94.0367,4.0,2.519841265,312.4265413,3.6,'11111222,11111222,11111222' 
TABS,ioos:station:wmo:42046:1,2007-08-03T14:00:00Z,27.8903,-94.0367,4.0,2.474206944,322.3889278,3.6,'11111222,11111222,11111222' 
TABS,ioos:station:wmo:42046:1,2007-08-03T14:30:00Z,27.8903,-94.0367,4.0,2.578701223,320.5072439,3.34,'11111222,11111222,11111222' 
TABS,ioos:station:wmo:42046:1,2007-08-03T15:00:00Z,27.8903,-94.0367,4.0,2.478729513,335.1924186,3.31,'11111222,11111222,11111222' 
TABS,ioos:station:wmo:42046:1,2007-08-03T15:30:00Z,27.8903,-94.0367,4.0,2.670674072,345.0269488,3.7,'11111222,11111222,11111222' 
TABS,ioos:station:wmo:42046:1,2007-08-03T16:00:00Z,27.8903,-94.0367,4.0,2.926465445,353.9190628,4.36,'11111222,11111222,11111222' 
TABS,ioos:station:wmo:42046:1,2007-08-03T16:30:00Z,27.8903,-94.0367,4.0,2.787723085,28.49536152,4.56,'11111222,11111222,11111222' 
TABS,ioos:station:wmo:42046:1,2007-08-03T17:00:00Z,27.8903,-94.0367,4.0,1.331352696,2.58280417,2.11,'11111222,11111222,11111222' 
TABS,ioos:station:wmo:42046:1,2007-08-03T17:30:00Z,27.8903,-94.0367,4.0,3.790013193,0.150965036,4.82,'11111222,11111222,11111222' 
TABS,ioos:station:wmo:42046:1,2007-08-03T18:00:00Z,27.8903,-94.0367,4.0,2.372277387,13.15730151,3.82,'11111222,11111222,11111222' 
TABS,ioos:station:wmo:42046:1,2007-08-03T18:30:00Z,27.8903,-94.0367,4.0,2.279034883,10.61941998,3.48,'11111222,11111222,11111222' 
TABS,ioos:station:wmo:42046:1,2007-08-03T19:00:00Z,27.8903,-94.0367,4.0,1.701440566,2.357689998,2.37,'11111222,11111222,11111222' 
TABS,ioos:station:wmo:42046:1,2007-08-03T19:30:00Z,27.8903,-94.0367,4.0,1.251958466,356.7945811,2.16,'11111222,11111222,11111222' 
TABS,ioos:station:wmo:42046:1,2007-08-03T20:00:00Z,27.8903,-94.0367,4.0,0.834865259,313.0584129,1.47,'11111222,11111222,11111222' 
TABS,ioos:station:wmo:42046:1,2007-08-03T20:30:00Z,27.8903,-94.0367,4.0,0.877097486,298.6103928,1.44,'11111222,11111222,11111222' 
TABS,ioos:station:wmo:42046:1,2007-08-03T21:00:00Z,27.8903,-94.0367,4.0,1.408012784,353.8843003,2.6,'11111222,11111222,11111222' 
TABS,ioos:station:wmo:42046:1,2007-08-03T21:30:00Z,27.8903,-94.0367,4.0,1.371313239,357.4920937,2.27,'11111222,11111222,11111222' 
TABS,ioos:station:wmo:42046:1,2007-08-03T22:00:00Z,27.8903,-94.0367,4.0,0.670820393,63.43459003,1.36,'11111222,11111222,11111222' 
TABS,ioos:station:wmo:42046:1,2007-08-03T22:30:00Z,27.8903,-94.0367,4.0,0.707248188,146.5349094,1.26,'11111222,11111222,11111222' 
TABS,ioos:station:wmo:42046:1,2007-08-03T23:00:00Z,27.8903,-94.0367,4.0,1.024158191,116.065024,1.92,'11111222,11111222,11111222' 
TABS,ioos:station:wmo:42046:1,2007-08-03T23:30:00Z,27.8903,-94.0367,4.0,1.191049957,92.40638581,2.29,'11111222,11111222,11111222' 
TABS,ioos:station:wmo:42046:1,2007-08-04T00:00:00Z,27.8903,-94.0367,4.0,1.269054766,102.2843476,2.17,'11111222,11111222,11111222' 
TABS,ioos:station:wmo:42046:1,2007-08-04T00:30:00Z,27.8903,-94.0367,4.0,0.990050504,90.57914513,1.6,'11111222,11111222,11111222' 
TABS,ioos:station:wmo:42046:1,2007-08-04T01:00:00Z,27.8903,-94.0367,4.0,0.322024844,64.23031172,0.98,'11111222,11111222,11111222' 
TABS,ioos:station:wmo:42046:1,2007-08-04T01:30:00Z,27.8903,-94.0367,4.0,0.972933708,102.4653246,1.6,'11111222,11111222,11111222' 
TABS,ioos:station:wmo:42046:1,2007-08-04T02:00:00Z,27.8903,-94.0367,4.0,0.603075451,130.2924745,0.95,'11111222,11111222,11111222' 
TABS,ioos:station:wmo:42046:1,2007-08-04T02:30:00Z,27.8903,-94.0367,4.0,0.670074623,90.85551631,1.3,'11111222,11111222,11111222' 
TABS,ioos:station:wmo:42046:1,2007-08-04T03:00:00Z,27.8903,-94.0367,4.0,0.534509121,107.418351,1.09,'11111222,11111222,11111222' 
TABS,ioos:station:wmo:42046:1,2007-08-04T03:30:00Z,27.8903,-94.0367,4.0,0.393573373,152.7841625,1.26,'11111222,11111222,11111222' 
TABS,ioos:station:wmo:42046:1,2007-08-04T04:00:00Z,27.8903,-94.0367,4.0,0.868331734,241.0736418,1.78,'11111222,11111222,11111222' 
TABS,ioos:station:wmo:42046:1,2007-08-04T04:30:00Z,27.8903,-94.0367,4.0,0.948736001,212.517645,1.89,'11111222,11111222,11111222' 
TABS,ioos:station:wmo:42046:1,2007-08-04T05:00:00Z,27.8903,-94.0367,4.0,0.747328576,204.5075584,1.28,'11111222,11111222,11111222' 
TABS,ioos:station:wmo:42046:1,2007-08-04T05:30:00Z,27.8903,-94.0367,4.0,1.70038231,190.8475319,2.23,'11111222,11111222,11111222' 
TABS,ioos:station:wmo:42046:1,2007-08-04T06:00:00Z,27.8903,-94.0367,4.0,2.196588264,184.4389164,2.7,'11111222,11111222,11111222' 
TABS,ioos:station:wmo:42046:1,2007-08-04T06:30:00Z,27.8903,-94.0367,4.0,2.200772592,192.3313211,3.03,'11111222,11111222,11111222' 
TABS,ioos:station:wmo:42046:1,2007-08-04T07:00:00Z,27.8903,-94.0367,4.0,2.39718585,188.6373217,3.24,'11111222,11111222,11111222' 
TABS,ioos:station:wmo:42046:1,2007-08-04T07:30:00Z,27.8903,-94.0367,4.0,2.3037578,188.2358105,3.07,'11111222,11111222,11111222' 
TABS,ioos:station:wmo:42046:1,2007-08-04T08:00:00Z,27.8903,-94.0367,4.0,2.090932806,201.9033373,2.84,'11111222,11111222,11111222' 
TABS,ioos:station:wmo:42046:1,2007-08-04T08:30:00Z,27.8903,-94.0367,4.0,2.460020325,229.1209135,3.3,'11111222,11111222,11111222' 
TABS,ioos:station:wmo:42046:1,2007-08-04T09:00:00Z,27.8903,-94.0367,4.0,6.567450038,195.4542359,8.74,'11111222,11111222,11111222' 
TABS,ioos:station:wmo:42046:1,2007-08-04T09:30:00Z,27.8903,-94.0367,4.0,2.919075196,221.389149,3.74,'11111222,11111222,11111222' 
TABS,ioos:station:wmo:42046:1,2007-08-04T10:00:00Z,27.8903,-94.0367,4.0,1.325631925,196.6580171,2.32,'11111222,11111222,11111222' 
TABS,ioos:station:wmo:42046:1,2007-08-04T10:30:00Z,27.8903,-94.0367,4.0,1.225601893,291.5409255,1.63,'11111222,11111222,11111222' 
TABS,ioos:station:wmo:42046:1,2007-08-04T11:00:00Z,27.8903,-94.0367,4.0,1.309694621,194.142524,1.89,'11111222,11111222,11111222' 
TABS,ioos:station:wmo:42046:1,2007-08-04T11:30:00Z,27.8903,-94.0367,4.0,1.492715646,199.1634114,2.19,'11111222,11111222,11111222' 
TABS,ioos:station:wmo:42046:1,2007-08-04T12:00:00Z,27.8903,-94.0367,4.0,1.281405478,92.6841898,1.86,'11111222,11111222,11111222' 
TABS,ioos:station:wmo:42046:1,2007-08-04T12:30:00Z,27.8903,-94.0367,4.0,0.627694193,59.3489828,0.99,'11111222,11111222,11111222' 
TABS,ioos:station:wmo:42046:1,2007-08-04T13:00:00Z,27.8903,-94.0367,4.0,0.262488095,139.6357683,1.09,'11111222,11111222,11111222' 
TABS,ioos:station:wmo:42046:1,2007-08-04T13:30:00Z,27.8903,-94.0367,4.0,1.812456896,77.57366527,2.13,'11111222,11111222,11111222' 
TABS,ioos:station:wmo:42046:1,2007-08-04T14:00:00Z,27.8903,-94.0367,4.0,3.869431483,85.99836973,4.84,'11111222,11111222,11111222' 
TABS,ioos:station:wmo:42046:1,2007-08-04T14:30:00Z,27.8903,-94.0367,4.0,2.820443228,88.98380528,3.47,'11111222,11111222,11111222' 
TABS,ioos:station:wmo:42046:1,2007-08-04T15:00:00Z,27.8903,-94.0367,4.0,2.186595527,81.05421817,3.21,'11111222,11111222,11111222' 
TABS,ioos:station:wmo:42046:1,2007-08-04T15:30:00Z,27.8903,-94.0367,4.0,2.814977797,84.08647047,3.6,'11111222,11111222,11111222' 
TABS,ioos:station:wmo:42046:1,2007-08-04T16:00:00Z,27.8903,-94.0367,4.0,1.97040605,91.16362444,2.57,'11111222,11111222,11111222' 
TABS,ioos:station:wmo:42046:1,2007-08-04T16:30:00Z,27.8903,-94.0367,4.0,2.106395025,116.8087021,3.14,'11111222,11111222,11111222' 
TABS,ioos:station:wmo:42046:1,2007-08-04T17:00:00Z,27.8903,-94.0367,4.0,1.940231945,89.11363456,2.69,'11111222,11111222,11111222' 
TABS,ioos:station:wmo:42046:1,2007-08-04T17:30:00Z,27.8903,-94.0367,4.0,2.412985702,109.1111286,4.12,'11111222,11111222,11111222' 
TABS,ioos:station:wmo:42046:1,2007-08-04T18:00:00Z,27.8903,-94.0367,4.0,2.520019841,112.3928705,3.47,'11111222,11111222,11111222' 
TABS,ioos:station:wmo:42046:1,2007-08-04T18:30:00Z,27.8903,-94.0367,4.0,2.815759223,130.5354084,3.78,'11111222,11111222,11111222' 